GEFSCGP_500_meanwind_138.txt.gz
Wind_Speed
59 62 63 63 63 62 63 64 64 62 61 61 62 61 57 56 56 55 53 51 48 45 44 44 43 42 41 40 39 38 37 36 35 33 32 31 30 30 29 28 27 27 27 27
58 62 59 58 60 62 64 65 64 63 62 63 63 63 61 59 58 56 55 53 51 48 47 46 45 45 44 42 41 40 39 38 36 35 34 34 33 32 31 29 29 29 29 29
56 56 56 60 61 62 64 63 63 62 61 62 64 65 64 61 60 59 57 55 53 51 50 49 47 46 46 44 43 41 40 39 38 37 37 36 34 33 31 31 31 31 31 30
52 52 55 59 62 61 62 60 60 61 61 62 64 66 65 63 62 60 59 57 55 53 52 51 50 48 47 45 44 43 42 41 40 39 38 37 35 33 33 34 34 33 33 33
47 50 53 57 59 59 59 58 58 59 61 63 64 66 66 64 64 61 59 58 56 54 53 52 51 49 48 47 46 45 44 43 42 41 39 38 37 36 36 36 35 35 35 36
42 47 51 53 54 56 56 57 58 58 59 64 65 65 67 65 62 60 59 57 56 55 54 53 52 51 49 49 48 47 45 44 43 42 41 40 38 38 38 38 38 38 38 37
39 44 49 52 53 56 57 55 56 57 59 63 63 65 68 63 60 59 58 57 56 55 55 54 52 52 51 50 49 48 47 46 45 44 42 41 40 40 40 40 39 39 39 38
39 42 47 51 52 53 57 58 57 56 57 58 61 65 66 62 58 57 57 57 56 56 56 55 53 52 51 51 50 49 48 47 46 45 43 42 41 41 41 40 40 40 40 40
36 40 44 48 50 50 53 58 56 54 54 54 58 62 63 62 58 56 56 56 56 56 56 55 55 54 52 51 51 50 49 48 47 46 45 44 43 42 41 41 41 41 40 40
34 38 42 45 48 50 50 53 57 57 55 53 53 58 62 60 57 56 55 55 55 55 55 55 55 55 54 53 52 51 50 49 48 47 46 45 44 43 43 43 42 41 41 42
33 36 40 44 48 49 49 52 56 57 59 56 53 54 56 55 55 54 52 53 53 54 55 55 55 54 54 53 52 51 50 49 49 48 48 46 45 44 43 43 42 42 42 43
31 34 35 40 44 47 49 49 53 56 58 58 55 52 52 50 50 51 51 50 51 52 53 54 54 54 53 52 51 50 49 49 48 48 47 46 45 45 44 44 43 43 43 43
30 33 34 35 40 46 48 49 50 52 54 56 57 55 51 49 47 47 49 49 48 49 50 51 52 52 52 51 50 49 49 49 48 48 47 47 46 45 45 44 44 44 44 44
31 33 34 35 37 43 46 48 48 50 52 54 54 52 52 47 46 45 45 46 47 47 47 48 49 49 50 49 49 49 48 48 48 47 47 46 45 45 45 45 45 45 44 44
31 33 35 36 36 39 42 47 48 49 50 51 49 50 51 50 45 43 43 43 44 44 45 46 46 47 47 47 47 48 48 48 47 46 45 45 44 44 45 45 44 44 43 43
29 32 35 35 37 38 39 43 48 48 48 50 50 50 50 51 48 44 42 43 43 44 44 45 45 45 45 46 46 46 46 46 46 45 45 45 44 43 43 42 42 42 42 42
27 31 34 35 36 37 38 40 43 45 43 47 50 50 50 49 48 46 44 43 45 45 45 44 45 45 45 45 45 45 45 44 44 45 44 43 43 42 41 41 41 40 40 40
24 27 31 33 35 36 34 35 38 41 44 46 50 51 52 49 48 47 46 45 45 45 46 45 45 45 45 45 45 45 44 44 43 43 43 42 42 41 41 40 40 40 40 40
23 25 28 32 34 34 33 33 35 39 42 44 49 51 51 51 50 49 48 47 47 46 46 46 46 46 46 45 45 44 44 43 42 42 41 40 40 40 40 39 39 39 39 39
23 24 26 29 32 33 34 34 33 36 39 42 46 50 51 51 52 51 50 50 49 49 48 47 47 47 46 46 45 44 43 42 41 41 40 39 39 39 38 38 38 38 38 38
22 24 25 27 29 31 32 34 34 36 38 40 43 48 50 52 51 50 51 51 51 50 49 48 48 47 47 46 45 44 42 41 40 40 39 39 39 38 38 37 37 37 37 37
22 23 25 27 29 29 31 33 35 36 38 40 42 45 49 50 51 51 51 52 51 50 49 49 48 47 47 45 44 44 43 42 40 39 39 39 39 38 38 37 37 36 36 36
22 23 25 27 28 28 30 32 34 36 38 40 42 43 47 48 50 51 51 52 52 51 50 50 49 48 47 47 45 44 43 42 41 40 39 38 38 38 37 36 36 35 35 35
23 24 26 27 28 29 30 31 34 36 38 39 41 42 44 46 48 49 50 50 52 52 51 51 50 49 47 46 46 45 44 42 41 40 40 39 38 37 37 36 36 35 35 35
24 25 26 28 27 29 31 33 34 36 37 39 40 42 43 44 46 47 48 48 49 50 50 50 50 49 47 46 46 45 44 43 42 41 40 39 38 37 37 36 35 35 35 35
24 25 26 27 26 29 30 32 34 36 37 39 40 41 42 43 44 46 47 46 46 47 48 48 49 48 47 46 46 45 44 43 42 41 40 39 38 38 37 36 36 36 35 35

GEFSCGP_500_meanwind_144.txt.gz
Wind_Speed
43 47 49 51 55 57 58 59 61 60 58 59 62 63 62 61 61 60 58 57 55 53 50 49 47 45 44 44 44 43 42 41 39 37 35 34 34 33 33 32 31 30 28 28
43 45 44 45 50 55 58 59 59 58 56 57 60 64 64 63 62 61 60 58 57 54 52 51 49 48 46 45 44 43 43 42 40 38 37 36 35 34 34 33 32 31 30 29
41 42 43 46 49 53 56 57 58 58 57 57 59 64 65 64 63 62 61 60 58 56 54 52 51 50 48 46 45 44 43 42 41 40 39 38 37 36 34 33 33 32 31 31
36 39 43 47 49 50 54 54 54 55 55 56 58 62 64 64 63 63 63 61 59 58 56 54 53 51 49 47 45 45 44 43 42 41 40 39 37 36 35 35 34 34 33 32
33 37 42 46 47 48 51 51 52 53 54 55 57 61 63 61 63 62 62 61 59 58 57 56 54 52 50 49 47 46 45 44 44 43 41 41 39 38 38 37 36 35 34 33
31 34 38 43 45 46 48 49 49 50 52 56 57 58 63 61 60 60 60 60 59 58 57 56 55 53 52 51 49 48 47 46 45 44 43 42 41 40 39 38 37 36 35 34
29 32 34 38 43 45 46 47 47 48 51 56 55 58 61 58 58 58 59 59 59 59 58 57 57 55 53 52 51 49 48 47 46 46 44 43 42 42 41 40 39 37 36 36
27 30 32 36 39 43 45 47 47 48 49 52 52 57 57 54 54 55 56 57 58 59 58 58 56 56 54 53 52 51 49 48 48 47 46 44 44 43 42 41 40 39 38 38
25 27 29 33 37 40 43 46 47 45 44 47 50 52 53 51 51 52 54 55 57 57 57 58 57 56 56 54 52 52 51 50 48 47 46 46 45 44 43 43 42 41 40 39
24 26 29 31 35 39 42 43 46 46 43 43 46 48 52 51 50 51 53 54 55 56 56 57 57 56 56 54 53 53 52 51 49 48 47 46 46 46 45 44 43 42 41 41
23 25 26 30 33 35 40 44 47 47 44 40 41 45 47 46 47 49 52 53 53 54 55 56 56 57 56 55 54 54 53 52 51 49 48 47 47 47 46 45 45 44 42 42
24 24 24 27 30 34 37 40 45 47 46 42 38 39 40 41 42 44 47 50 52 54 53 53 54 55 56 56 55 54 53 52 51 51 49 47 46 46 47 46 45 44 43 43
24 25 24 24 28 32 35 38 42 46 46 43 41 37 39 38 39 40 43 45 48 52 54 53 53 54 55 56 55 54 53 52 51 50 50 48 47 47 46 45 45 44 43 42
24 26 26 26 27 32 35 37 40 44 47 45 42 38 37 38 39 39 40 43 45 47 51 52 52 52 53 54 54 54 53 52 50 49 49 48 47 47 46 45 45 45 44 43
25 26 26 27 28 30 34 38 40 44 47 46 42 41 39 38 40 40 40 41 43 45 47 49 51 51 52 52 52 53 52 52 51 49 48 47 46 46 45 45 45 44 44 44
24 25 26 28 29 31 32 35 38 42 45 46 45 43 41 40 41 41 40 40 41 43 45 47 49 50 50 50 50 51 51 51 51 50 49 47 46 45 45 44 45 45 45 44
22 23 25 26 27 29 31 32 35 41 43 46 46 44 42 41 41 40 40 41 41 42 44 46 47 48 49 49 49 49 49 49 49 49 49 48 46 46 45 45 45 45 44 44
20 21 23 24 26 27 28 29 33 37 40 43 45 44 44 42 41 41 41 41 41 42 45 46 47 48 48 48 49 49 48 48 48 48 47 47 47 45 44 43 43 42 42 42
19 20 22 23 25 26 28 28 30 34 37 40 43 44 44 45 44 43 42 42 43 44 45 45 46 47 48 48 48 48 47 47 47 47 46 45 44 44 43 42 42 41 40 39
20 20 22 22 23 25 27 27 28 32 36 39 40 43 43 44 46 45 44 44 44 45 46 45 45 46 47 47 47 46 46 46 45 45 45 44 43 42 42 41 40 40 39 38
20 22 22 23 23 25 27 28 28 32 34 37 39 41 43 45 44 45 46 45 45 46 46 46 45 45 46 47 47 46 45 45 44 44 43 42 42 41 41 40 40 39 38 37
21 22 23 24 25 25 26 27 29 31 34 36 39 40 42 44 45 45 46 48 47 47 46 47 46 46 46 47 47 46 45 45 44 43 42 41 41 40 40 39 38 37 36 36
22 22 23 26 26 26 27 28 29 30 32 34 37 39 40 42 44 45 46 47 48 48 48 48 47 47 47 47 47 47 46 45 44 43 42 41 40 39 39 38 37 36 35 35
22 23 24 26 27 28 29 30 31 32 33 34 35 37 39 41 42 44 45 46 47 48 50 49 48 49 48 47 47 47 46 45 44 43 42 41 40 39 39 37 36 35 34 34
22 23 25 26 26 28 29 31 32 33 34 35 36 37 39 41 42 43 44 46 46 47 48 49 49 50 50 48 48 48 47 45 44 43 41 41 39 38 38 36 35 34 33 33
22 24 26 26 26 28 28 30 32 33 34 35 36 37 38 40 41 42 43 46 47 47 47 48 49 49 50 49 49 48 47 46 45 43 42 41 40 39 37 35 34 33 32 32

GEFSCGP_500_meanwind_150.txt.gz
Wind_Speed
31 33 34 35 40 44 46 49 51 52 52 57 60 61 61 61 63 64 63 62 60 59 56 54 52 50 49 48 46 45 44 43 43 42 42 41 40 39 38 37 36 35 35 34
28 29 31 34 37 42 46 48 48 50 51 55 59 62 61 60 62 64 63 63 61 59 58 56 54 52 51 49 47 46 44 43 42 41 41 41 41 41 40 39 38 36 35 34
26 26 31 33 35 37 42 46 46 47 50 52 55 61 63 61 61 63 64 64 63 60 58 57 56 54 52 50 48 46 45 43 43 42 42 42 42 41 40 38 37 36 36 35
23 24 28 32 33 36 38 42 43 44 47 50 52 57 61 60 61 63 63 64 64 61 59 58 57 55 53 51 48 46 45 44 43 43 43 42 41 39 38 38 38 37 36 36
22 23 26 29 31 33 36 40 42 43 45 48 50 54 57 59 60 61 62 62 62 62 60 58 57 55 53 52 50 48 46 45 44 44 43 42 41 40 40 40 38 37 37 36
21 22 25 28 30 31 32 37 42 44 45 49 48 51 55 54 56 57 60 60 61 61 61 59 57 57 55 53 52 50 48 46 45 44 44 43 41 41 40 39 38 38 37 36
20 21 23 26 28 30 31 33 37 41 45 46 45 49 52 48 50 53 56 58 59 59 60 59 59 58 56 55 53 51 49 47 45 44 44 43 42 42 40 40 39 38 37 36
19 18 21 23 26 29 30 32 35 37 41 42 43 47 47 44 46 51 54 56 57 58 59 58 58 58 57 55 53 52 50 48 46 45 43 43 43 42 41 41 40 39 38 37
18 16 19 22 23 27 29 31 33 33 35 39 42 45 45 43 44 46 51 54 56 57 58 58 57 57 57 55 54 52 50 49 47 45 44 43 43 42 42 41 40 40 39 39
17 17 17 21 22 24 27 29 32 33 32 33 39 43 43 41 41 44 47 51 53 54 56 57 57 57 57 56 54 53 51 50 48 47 45 44 43 43 42 42 41 40 40 40
17 17 17 20 22 23 25 29 32 33 33 32 35 39 41 40 41 42 44 46 48 51 54 56 56 57 57 56 55 54 52 50 50 48 47 45 45 44 43 42 41 40 40 40
17 17 17 19 21 24 26 29 32 33 33 33 35 35 37 40 40 40 42 45 46 48 51 54 55 55 56 56 56 55 53 52 50 49 48 47 46 45 45 43 42 41 41 41
17 17 16 17 20 24 28 30 32 33 33 33 36 37 35 37 39 39 41 43 45 47 49 51 53 54 55 55 55 55 54 52 51 50 49 47 47 46 44 44 43 42 42 41
18 18 17 18 19 24 27 31 33 34 35 35 36 35 35 36 38 38 39 41 44 47 48 50 51 53 54 54 54 54 54 53 52 51 50 49 47 46 45 44 44 43 43 42
19 19 19 18 19 22 26 29 32 34 36 37 37 36 35 36 38 39 39 40 41 45 48 49 50 52 53 53 54 54 53 53 52 51 50 49 48 46 45 44 44 43 43 42
20 20 20 19 20 21 24 27 28 32 35 37 37 36 37 37 39 41 40 40 40 43 46 48 49 51 52 52 53 53 53 52 52 51 50 50 49 48 47 45 45 44 43 42
19 19 20 20 19 19 22 24 27 30 34 37 37 35 37 38 40 43 42 41 41 42 44 46 48 49 50 51 51 51 52 52 52 51 50 50 49 49 48 46 45 44 43 43
19 20 20 20 21 21 19 22 24 27 31 35 36 35 36 37 40 43 43 42 42 42 43 45 46 47 48 50 50 50 51 52 52 51 50 49 49 49 48 47 45 45 44 43
18 19 20 21 21 21 19 20 23 26 29 33 35 35 35 37 39 42 43 42 43 44 45 46 46 46 48 49 50 50 50 51 52 51 51 50 50 49 48 47 46 45 44 43
17 18 20 21 21 21 20 20 22 26 29 32 34 35 35 38 40 41 41 42 42 44 44 46 46 46 47 47 48 49 50 50 51 51 50 50 50 49 48 47 46 46 45 43
18 18 19 20 21 21 20 20 22 25 28 31 33 35 36 38 40 40 41 41 42 42 43 44 45 46 47 47 47 48 49 49 50 50 50 50 49 48 47 46 45 45 45 43
18 19 19 21 22 21 22 22 23 24 28 31 33 34 35 37 39 40 41 41 41 41 42 43 44 45 46 46 47 47 49 49 49 48 49 49 48 47 46 45 44 44 43 42
19 20 21 22 22 22 23 24 24 26 28 30 33 34 35 37 38 40 41 42 42 42 42 42 44 44 45 46 46 47 48 49 49 48 48 48 48 47 46 45 44 42 41 41
19 20 22 22 21 22 24 25 25 25 27 29 31 33 35 37 38 39 41 42 43 44 43 43 44 44 46 46 45 44 46 48 49 47 46 46 46 46 45 43 43 42 41 40
18 20 21 21 21 22 24 26 26 26 27 28 30 32 35 37 39 40 41 42 43 43 44 44 44 44 45 46 45 44 44 45 46 47 47 46 45 44 44 43 42 41 40 39
18 20 21 21 22 23 23 25 27 28 28 28 30 31 33 36 39 40 41 42 43 45 45 45 45 45 45 45 45 45 44 44 44 45 46 46 45 45 44 43 42 40 39 38

GEFSCGP_500_meanwind_156.txt.gz
Wind_Speed
37 35 32 32 33 34 34 35 37 39 43 46 49 52 53 54 57 60 60 61 62 63 63 63 62 60 59 58 56 55 52 50 50 49 47 46 45 44 43 43 43 42 40 38
35 32 30 30 30 31 32 33 34 36 40 45 46 49 49 52 55 58 59 59 61 62 63 63 63 62 60 59 57 55 54 51 49 48 48 47 46 45 44 44 43 43 41 40
33 30 28 28 28 29 30 32 32 34 36 41 44 46 46 49 53 56 59 59 59 62 63 64 64 62 61 59 57 55 53 52 50 48 49 48 46 46 45 44 43 43 42 41
31 29 28 27 26 29 29 29 31 33 35 38 41 44 43 46 50 54 57 59 59 60 62 63 64 64 62 59 57 56 54 52 51 50 49 47 46 45 43 43 43 43 43 42
29 28 27 26 25 26 27 28 30 31 34 37 38 42 41 43 47 51 54 57 59 60 61 63 63 64 62 60 58 56 55 53 52 51 49 47 46 45 45 44 44 44 43 43
28 26 26 25 24 25 26 26 27 29 31 34 34 39 41 40 42 47 50 53 57 59 61 63 63 64 63 61 60 58 56 54 53 51 49 47 46 45 45 44 44 44 43 42
26 25 24 23 22 22 23 23 24 25 28 29 30 36 38 37 39 44 48 51 55 59 60 62 63 63 64 62 60 58 57 55 54 52 49 46 46 45 45 44 44 43 42 41
26 22 22 21 21 20 20 20 22 23 26 27 28 32 36 35 36 41 45 48 53 58 60 61 63 62 62 62 60 58 57 55 54 53 50 47 46 45 45 45 44 43 42 41
27 21 19 19 20 19 19 20 21 23 23 25 26 31 33 34 35 39 43 46 50 56 59 61 63 63 62 61 60 59 58 56 54 53 51 49 47 45 45 45 45 43 42 41
26 22 19 19 19 19 19 19 20 21 20 21 23 27 30 33 34 38 41 44 48 52 56 59 62 62 63 62 61 59 58 57 55 54 53 51 48 47 45 45 45 44 42 42
26 23 20 20 19 19 20 19 19 21 21 20 21 24 27 29 32 36 40 43 45 48 52 56 59 61 61 62 61 60 59 58 57 55 54 53 50 48 47 46 45 45 44 42
26 24 21 20 20 20 21 21 20 22 23 23 23 22 25 26 29 33 38 41 44 46 49 53 55 58 61 61 61 60 57 57 57 55 54 53 52 50 49 47 46 46 45 44
26 24 22 20 19 20 21 23 23 24 26 26 27 24 24 25 29 32 35 39 42 45 47 51 53 55 57 59 61 60 58 57 57 56 55 54 53 52 50 48 47 46 45 45
26 24 23 22 21 21 21 23 23 25 27 27 27 26 25 25 29 32 35 38 41 44 46 48 51 53 55 57 59 60 59 58 58 57 55 54 53 52 51 50 48 47 46 46
27 26 24 23 22 22 22 23 24 26 27 28 27 28 28 27 30 32 35 39 41 43 45 47 49 51 53 55 57 58 59 58 57 57 56 54 53 53 52 51 50 49 48 46
27 26 24 22 22 23 23 22 24 26 27 29 29 29 30 31 31 33 35 38 41 43 44 45 48 50 51 53 55 57 58 58 57 56 56 55 53 53 53 52 51 51 50 48
27 26 25 23 22 23 22 21 23 25 27 29 30 30 32 33 33 33 36 38 39 42 44 46 48 49 51 51 53 55 56 56 57 57 56 56 55 54 52 52 52 51 50 49
26 26 25 24 22 22 20 21 23 24 26 28 29 31 32 33 34 36 36 38 40 41 44 46 48 50 51 51 52 54 56 56 56 57 57 56 55 54 53 53 52 51 50 49
26 26 26 25 24 23 21 21 22 24 24 26 29 31 32 33 35 37 38 39 40 41 43 44 46 49 50 51 51 53 55 55 55 56 56 56 55 55 53 52 52 51 49 48
26 26 26 26 25 24 21 22 23 23 22 24 27 29 31 33 35 36 39 40 40 42 43 44 45 47 50 50 50 51 53 54 55 55 55 56 55 55 54 52 51 50 49 48
26 26 25 25 25 23 21 22 23 23 22 24 26 28 29 32 34 36 38 40 41 42 42 43 44 46 49 50 50 51 51 52 54 54 54 54 55 54 54 53 51 50 49 48
27 27 26 25 25 23 22 22 23 23 24 25 26 27 29 30 34 37 38 39 40 42 43 43 43 45 48 49 50 51 51 52 53 54 54 54 53 53 53 52 51 50 49 48
27 26 27 26 25 24 24 24 24 24 25 25 26 27 28 30 32 36 37 38 39 41 42 43 44 44 47 49 50 50 51 52 53 53 54 54 53 52 52 51 50 50 49 48
26 27 27 26 24 24 24 24 24 25 25 25 26 27 29 30 31 34 37 38 40 42 43 43 43 44 46 48 49 50 51 50 51 52 53 53 53 53 52 51 51 50 49 47
26 27 26 25 23 24 24 24 24 25 24 25 25 27 28 29 32 34 36 38 39 41 42 43 44 44 45 46 48 49 50 50 50 51 52 52 52 52 52 51 51 49 48 47
24 26 26 24 24 24 24 25 25 25 25 25 25 26 28 28 30 33 35 36 38 40 41 42 43 44 44 45 47 48 48 49 49 49 49 50 50 50 50 50 50 49 47 46

GEFSCGP_500_meanwind_162.txt.gz
Wind_Speed
41 39 38 38 38 38 39 38 37 34 33 35 36 35 32 33 37 40 45 50 53 57 60 62 63 63 65 67 67 67 66 64 62 61 59 58 56 55 54 53 51 50 48 46
40 39 39 38 37 37 36 36 35 33 31 33 33 32 30 31 34 36 42 47 50 54 59 61 63 63 64 66 67 67 67 65 63 61 59 59 56 54 54 53 52 50 49 48
39 39 39 37 35 35 34 33 34 33 30 29 31 30 30 29 30 32 38 43 47 52 57 59 62 64 64 66 67 67 66 65 63 61 59 59 58 55 54 52 52 51 49 48
39 38 38 36 35 34 32 31 31 29 28 27 26 28 26 26 27 30 35 40 44 50 55 57 60 63 64 65 66 66 66 66 64 62 60 59 57 55 52 52 52 51 50 49
41 38 37 35 33 33 31 29 27 25 24 23 21 24 22 23 25 27 32 38 42 47 53 56 59 62 64 64 65 66 66 66 65 63 60 58 56 54 53 52 52 51 50 49
39 37 36 34 32 31 30 27 24 21 21 19 18 21 21 21 24 26 30 36 40 44 51 54 58 61 63 65 65 65 66 65 65 63 62 59 56 56 54 52 52 51 50 49
38 36 35 34 31 29 27 25 22 19 18 18 17 18 18 20 22 24 27 33 38 43 49 53 56 60 62 63 65 66 66 65 65 64 63 60 56 55 54 51 51 51 50 48
38 34 33 32 30 28 25 22 20 20 19 18 17 17 16 17 20 23 25 30 36 43 46 51 55 59 61 63 65 65 66 65 64 64 63 61 59 56 54 52 50 50 49 48
37 34 32 31 29 26 23 21 20 20 20 19 17 16 15 14 17 21 24 29 35 41 44 49 54 58 60 62 64 66 65 65 64 62 63 61 59 57 55 54 51 50 49 49
36 34 31 30 27 25 23 21 20 20 21 20 18 18 17 15 17 21 24 28 34 39 43 47 52 57 59 61 62 63 65 65 64 61 61 61 59 57 55 53 51 49 48 48
36 34 31 29 26 24 22 21 20 21 21 22 22 20 18 17 17 20 24 28 33 38 42 45 50 55 58 59 61 62 63 64 64 61 60 61 59 57 56 54 52 49 48 48
36 34 31 28 26 24 22 21 21 21 22 22 23 20 19 19 19 20 23 27 31 36 41 44 47 52 57 59 59 60 63 63 62 61 60 59 59 57 56 54 52 50 48 47
37 34 32 29 27 25 23 21 22 23 22 22 22 21 20 19 19 21 22 26 30 33 39 42 45 49 55 58 59 60 60 61 60 60 59 59 59 57 55 54 53 51 49 48
37 35 32 30 28 27 24 23 23 24 23 23 22 21 19 19 19 21 23 26 29 31 36 41 44 47 52 57 59 59 59 60 61 59 59 58 58 57 55 53 53 52 51 50
37 35 33 30 28 27 25 24 24 24 24 24 22 21 18 19 20 21 24 26 29 30 34 39 42 45 49 54 57 58 58 59 59 59 58 57 57 57 56 55 53 53 53 51
37 35 33 31 29 28 26 24 25 25 25 25 24 21 20 20 20 21 24 26 29 31 33 37 42 44 47 50 54 56 57 58 57 58 58 55 55 56 57 56 54 53 53 52
36 35 34 31 29 29 27 25 25 26 24 25 25 23 22 21 21 21 23 27 29 31 33 37 41 44 47 49 51 54 54 56 57 58 57 55 54 55 55 55 54 53 52 52
35 34 34 32 30 28 27 25 26 26 25 25 25 24 23 23 23 23 23 26 28 31 34 37 39 42 45 48 50 52 54 54 55 57 57 56 55 55 54 54 54 54 52 51
35 34 33 32 31 29 27 26 26 26 25 25 25 25 24 25 25 24 24 26 27 30 33 36 39 41 43 46 49 51 53 54 54 55 57 56 55 55 54 54 53 53 51 50
35 34 33 33 32 30 27 26 26 26 26 25 25 26 26 26 26 26 26 27 28 30 32 35 38 42 43 45 48 50 51 53 53 53 55 55 55 55 55 54 53 52 51 49
34 33 32 33 33 30 28 27 26 26 25 24 26 26 27 27 27 27 28 28 29 30 32 34 36 40 42 44 47 47 49 52 53 53 54 54 54 55 55 54 54 52 51 49
34 33 32 32 32 30 28 27 26 26 26 25 25 26 27 28 28 28 28 28 29 31 33 35 36 38 40 43 45 46 47 50 51 52 53 53 53 54 54 54 54 53 52 50
33 33 33 32 30 29 28 27 27 26 25 25 25 26 26 27 28 28 28 29 29 31 33 36 37 38 39 41 43 45 47 48 50 51 52 53 53 53 53 53 52 52 51 50
33 33 32 31 28 28 28 27 27 27 25 24 25 25 25 26 26 27 28 29 29 30 32 35 38 39 39 41 43 45 45 47 48 50 51 52 53 52 52 51 51 50 50 49
33 32 31 30 28 28 27 27 27 26 25 24 24 25 25 25 25 26 27 28 28 29 32 35 37 39 40 40 43 45 45 46 47 49 50 51 51 52 51 51 50 49 48 46
30 30 30 28 28 27 26 26 27 26 25 25 25 25 25 25 25 26 26 27 28 28 31 34 36 38 39 40 41 44 45 45 47 48 49 50 51 51 51 51 50 49 48 47

GEFSCGP_500_meanwind_168.txt.gz
Wind_Speed
44 43 43 43 42 42 42 42 41 40 40 41 39 38 37 35 36 36 35 36 37 39 40 43 47 50 52 54 55 58 62 65 66 66 66 67 67 66 65 63 60 58 57 54
44 43 43 42 42 42 41 40 40 39 39 39 37 34 33 32 32 32 32 33 34 36 37 38 42 46 50 53 54 57 61 64 65 66 67 68 69 67 65 63 62 60 58 55
44 44 43 41 41 40 38 39 40 40 38 35 36 33 29 30 30 30 31 31 32 34 35 37 40 43 48 51 54 56 59 62 65 66 66 67 69 67 65 64 63 60 58 56
44 44 43 41 40 40 39 38 39 38 38 35 33 34 28 28 27 28 28 28 29 30 34 36 38 41 45 49 52 57 59 61 64 65 66 66 66 66 65 63 62 60 58 57
44 44 43 40 39 39 39 38 37 36 35 33 30 34 31 28 27 26 26 26 27 28 31 34 37 40 43 47 50 56 58 61 63 64 64 65 66 66 65 63 63 60 58 56
44 43 42 40 39 38 38 38 37 35 34 32 29 32 31 27 28 26 26 26 26 27 28 30 33 37 41 45 49 53 57 60 61 63 63 63 66 67 65 64 60 59 58 56
44 42 41 40 38 37 37 38 38 37 35 32 29 30 29 27 27 27 26 26 26 26 27 28 30 34 39 44 48 52 56 59 61 62 61 62 64 64 63 62 59 57 57 56
45 42 41 40 38 37 36 36 36 36 35 32 29 28 27 26 26 27 26 25 25 26 27 26 27 32 38 43 47 51 54 58 60 61 61 60 63 63 63 61 58 57 56 54
45 42 40 38 37 36 36 34 34 35 35 34 31 29 27 25 26 26 25 25 24 25 26 25 27 31 36 41 46 50 53 58 60 60 58 59 60 62 63 60 57 55 53 53
44 43 40 38 37 36 35 34 33 33 34 35 32 30 27 26 26 26 26 24 25 25 26 25 26 30 33 38 44 50 54 56 59 59 58 59 60 61 62 62 58 55 52 50
45 45 41 39 38 36 35 34 33 34 33 34 34 31 28 27 26 26 26 25 24 24 26 26 28 30 32 36 42 48 54 55 58 58 57 58 59 60 61 60 58 54 52 51
45 45 42 40 39 37 36 34 34 34 34 33 34 31 27 27 27 26 25 25 24 24 25 26 28 29 32 36 41 47 51 54 55 57 56 57 59 58 59 60 57 54 51 50
45 45 44 41 40 39 37 35 35 35 35 34 34 32 28 28 28 27 26 25 25 24 24 26 27 30 33 36 40 45 49 52 54 56 55 55 57 58 59 60 58 54 51 50
45 44 43 42 40 40 38 36 36 36 36 35 33 32 28 28 28 28 27 25 25 25 25 26 27 30 33 36 39 44 48 51 52 55 55 55 55 56 57 58 58 56 53 51
45 45 44 42 40 39 38 36 36 36 35 36 33 32 29 28 28 28 27 26 25 25 25 26 28 30 33 36 39 43 46 49 50 52 54 53 54 53 55 55 55 55 53 51
46 46 45 43 41 40 39 36 35 35 35 36 35 31 29 30 29 28 27 26 26 26 26 26 27 30 32 35 38 41 45 48 49 50 52 52 54 52 53 53 52 51 51 51
47 46 46 44 41 42 40 37 36 36 35 35 35 32 31 30 29 29 27 26 26 27 27 27 27 29 32 35 37 42 45 47 48 48 50 50 51 53 53 54 53 52 51 50
46 45 46 45 44 43 39 38 37 36 34 34 34 33 32 31 30 29 28 27 26 27 27 28 28 29 31 34 37 41 44 47 48 48 48 50 51 52 52 53 53 52 51 51
44 44 45 45 45 45 39 38 38 36 34 33 33 33 33 32 31 29 29 27 26 26 27 28 29 30 31 33 36 40 43 47 48 47 48 48 49 50 50 50 52 52 50 51
44 44 44 45 46 46 42 40 38 37 34 32 33 32 32 32 31 30 30 28 27 27 27 28 30 31 33 34 35 38 41 45 47 47 49 49 49 48 47 48 49 50 50 50
43 43 43 44 45 45 41 40 38 37 36 34 32 32 32 31 31 30 29 29 28 28 28 28 29 31 33 35 36 37 40 43 46 47 47 48 48 48 47 45 47 49 49 49
44 44 43 43 44 43 41 39 38 37 36 35 33 32 31 30 30 29 29 29 29 28 29 29 29 30 33 35 36 37 39 41 44 47 47 46 47 48 47 46 46 48 48 48
44 43 43 43 42 42 40 39 38 37 36 35 33 32 30 30 29 28 29 29 29 29 30 30 31 31 32 35 37 38 39 41 42 44 46 47 47 47 47 47 46 46 47 47
44 43 43 43 40 39 39 38 37 36 34 34 33 32 31 30 29 29 28 28 28 29 30 30 31 32 33 35 37 38 39 42 42 43 44 46 46 46 46 46 46 47 46 44
42 43 43 41 38 38 37 37 35 34 34 33 32 32 31 29 28 29 29 28 27 28 29 30 30 32 33 35 37 39 39 41 42 43 43 44 45 45 45 46 46 46 46 45
39 41 41 39 37 37 35 35 34 34 33 33 32 31 30 29 29 29 28 28 27 27 28 29 29 30 32 33 36 39 40 41 41 42 43 43 44 45 44 45 45 46 46 44

GEFSCGP_500_meanwind_174.txt.gz
Wind_Speed
33 34 36 37 38 39 39 39 39 39 39 39 39 38 36 36 37 37 38 39 39 38 39 39 40 42 45 48 51 54 56 59 60 61 61 62 64 66 65 66 67 67 66 64
34 35 37 38 38 39 39 39 39 37 38 38 38 36 34 34 36 38 37 37 37 36 37 37 38 39 41 43 47 50 52 56 58 60 61 61 62 65 65 66 68 69 67 66
34 36 37 38 38 39 39 39 39 39 37 36 37 35 33 33 36 37 36 36 36 35 35 34 35 37 38 40 43 46 47 52 55 57 59 60 62 64 66 66 67 69 68 68
36 37 38 39 39 39 38 38 39 39 39 37 37 38 34 35 36 36 35 34 33 33 32 31 31 32 35 38 41 43 46 48 51 53 57 58 60 62 64 64 65 67 69 69
36 37 38 39 39 39 39 39 39 40 39 38 37 39 36 36 36 34 34 32 31 31 30 29 31 32 33 35 39 41 43 45 47 50 52 54 58 60 61 61 65 67 68 68
37 38 38 39 39 39 39 40 40 40 39 39 37 38 36 36 37 35 34 32 31 31 30 30 31 33 34 36 36 39 42 43 45 47 49 53 57 58 58 58 60 64 66 67
36 37 38 39 39 38 39 40 40 41 40 39 37 37 36 36 36 36 35 34 32 30 30 30 31 32 34 35 35 36 39 41 42 45 47 52 55 56 56 56 57 62 63 63
38 38 37 38 39 39 39 39 39 41 41 40 38 36 35 35 35 35 34 33 32 31 30 29 30 31 31 32 33 35 38 40 41 45 48 50 54 52 51 54 56 59 59 61
39 39 39 39 39 39 39 39 39 40 41 41 40 38 34 34 34 34 34 32 32 31 29 28 28 29 30 31 31 32 35 39 40 43 48 49 50 50 49 52 53 54 55 58
39 40 39 39 40 39 39 39 39 39 42 43 43 40 36 35 34 34 33 32 31 31 28 27 27 28 27 28 29 30 32 35 40 43 45 49 48 47 48 50 49 50 52 56
40 41 41 40 40 40 40 39 39 40 41 43 45 40 38 37 36 34 32 32 31 31 29 27 27 27 26 26 28 30 32 34 37 41 44 45 46 46 47 49 50 51 50 53
40 41 41 41 41 41 41 40 39 40 41 42 44 42 38 38 37 35 33 32 32 31 29 27 28 27 26 26 28 30 32 34 36 39 42 44 44 45 46 46 48 48 48 51
41 41 42 42 42 42 42 41 40 40 41 42 42 42 39 37 37 35 34 32 32 31 28 27 27 26 25 25 27 30 31 33 34 36 39 42 43 46 47 47 46 46 47 49
41 42 42 42 42 42 42 41 40 41 41 42 41 40 37 36 36 35 34 32 32 30 29 28 27 26 25 26 28 29 31 33 34 34 37 42 43 44 48 48 47 44 44 45
42 43 43 43 42 42 41 41 40 41 41 42 40 39 38 36 36 35 33 32 31 29 29 28 27 26 25 26 27 29 31 33 34 35 36 39 42 44 44 47 46 44 43 44
44 44 44 44 44 43 43 41 41 40 40 40 39 38 37 37 36 35 33 32 31 29 28 27 27 26 26 27 27 29 32 33 33 34 36 38 41 43 44 43 44 43 44 44
45 46 46 46 44 45 43 42 40 39 38 39 39 38 37 36 36 35 33 31 29 28 28 26 25 25 26 28 28 29 31 33 33 34 36 39 41 42 43 43 41 44 45 45
46 46 46 46 45 45 44 42 40 39 38 38 38 37 37 37 36 34 33 31 29 28 28 27 25 25 26 28 29 30 31 32 33 34 36 39 41 42 41 40 40 41 44 43
45 45 45 45 46 47 43 41 41 40 38 37 38 38 38 36 36 34 33 31 29 28 27 27 26 25 26 27 29 30 31 32 33 34 35 39 41 42 41 40 40 41 43 42
45 45 46 46 47 47 43 41 41 41 39 37 37 38 37 36 35 33 32 32 30 29 27 26 25 25 26 26 27 29 30 31 32 33 35 38 41 42 42 40 40 41 43 43
45 45 45 45 46 45 42 41 40 41 40 38 37 37 36 36 35 33 32 31 30 30 28 26 26 25 25 27 28 29 28 30 31 32 33 35 38 40 41 42 40 41 43 43
44 44 43 43 45 43 41 41 41 41 40 39 39 37 36 35 34 33 32 31 30 29 28 26 26 25 25 27 28 29 28 30 32 33 33 33 35 38 40 42 42 42 42 41
43 42 42 43 43 41 41 41 41 41 40 39 38 37 36 35 34 33 33 31 30 29 28 27 26 25 25 26 27 28 29 29 31 33 34 33 33 35 37 40 42 42 42 40
43 42 43 43 41 40 41 41 41 40 40 39 37 36 35 35 34 33 32 31 30 29 28 27 26 25 24 25 27 28 30 30 30 32 33 34 33 34 35 38 41 42 41 40
42 42 43 43 41 40 39 40 39 39 38 37 36 35 35 34 33 32 31 30 29 28 27 26 25 24 24 25 26 28 30 31 32 32 33 34 34 34 34 36 40 41 40 39
39 41 42 42 40 41 39 37 37 37 36 36 35 34 34 33 32 31 30 29 28 28 27 26 25 24 24 25 26 28 29 31 32 34 34 35 35 35 35 36 39 39 39 39

GEFSCGP_500_meanwind_180.txt.gz
Wind_Speed
27 29 30 31 32 33 34 35 36 37 40 40 39 38 38 39 41 42 43 43 42 42 44 45 45 45 47 47 48 50 51 53 54 56 58 61 63 62 62 62 63 66 67 66
30 31 32 33 34 34 36 36 37 38 40 41 40 39 38 39 40 42 42 42 42 42 42 43 43 43 43 44 45 48 48 49 51 52 54 57 61 62 61 62 62 64 67 67
31 32 33 34 35 35 37 38 39 40 40 41 41 39 38 39 40 42 42 42 42 43 42 41 41 41 41 42 44 46 47 47 47 49 52 55 58 60 61 61 61 62 65 65
33 33 34 34 35 37 37 38 40 40 41 41 41 41 38 39 40 41 43 42 42 42 42 40 40 39 40 42 43 43 45 45 45 48 49 52 54 57 58 58 60 60 62 63
34 34 35 36 36 37 38 39 40 40 41 41 41 42 40 40 40 41 42 41 41 42 41 40 40 40 40 41 42 42 42 44 44 46 47 50 53 55 56 57 59 60 60 61
35 35 36 36 37 38 38 39 41 41 42 42 42 43 41 41 41 41 42 41 41 40 41 39 39 40 40 41 41 40 41 43 44 45 45 47 48 51 53 55 57 59 60 60
35 36 36 36 37 38 39 40 42 44 43 43 43 43 42 42 41 41 41 42 41 40 40 40 40 41 42 42 41 40 40 41 42 44 44 45 46 47 49 51 55 58 59 61
37 37 36 37 37 38 39 40 41 44 45 45 44 44 43 42 41 42 42 42 42 42 42 42 42 42 42 42 40 39 38 39 41 41 43 43 43 44 46 50 51 54 57 59
39 38 38 38 38 39 39 40 41 43 46 46 46 46 43 42 42 42 42 42 43 43 43 43 43 42 41 41 40 39 37 38 40 40 42 43 43 43 45 49 51 52 55 57
40 40 39 39 39 39 40 41 42 43 46 48 48 47 45 44 43 42 42 42 43 43 43 42 42 41 41 40 38 37 37 37 38 39 41 43 42 41 43 46 49 51 52 55
41 41 41 40 40 40 40 41 42 44 45 48 50 48 45 44 44 44 43 42 43 43 43 42 42 42 41 39 37 36 36 36 36 37 38 40 41 41 42 43 45 47 49 52
42 43 42 41 41 41 42 42 42 44 46 48 50 49 45 45 44 44 44 43 43 43 42 41 41 40 40 38 37 36 34 34 34 34 36 37 38 39 39 40 42 43 45 49
42 43 43 43 43 43 43 43 43 45 46 47 49 49 45 45 44 45 45 44 44 43 42 40 39 39 37 36 35 34 32 31 32 32 33 35 35 36 37 38 40 41 43 44
43 43 43 44 43 44 44 44 44 45 46 48 48 49 45 44 44 44 44 44 43 42 40 39 38 37 36 34 33 32 30 30 29 29 30 31 32 33 35 37 38 40 41 41
44 45 45 44 43 44 45 45 45 46 46 48 48 48 46 45 44 44 44 43 42 41 39 37 37 36 35 33 32 31 29 28 27 27 27 28 30 31 32 34 36 37 38 40
46 46 46 46 45 45 45 44 44 45 46 47 48 47 46 45 44 44 43 42 41 40 38 36 36 35 34 32 30 29 29 27 27 26 25 26 27 29 30 32 34 35 36 37
47 47 47 47 46 47 46 44 44 45 46 46 47 47 46 44 43 42 42 41 40 39 38 36 35 34 33 31 29 28 27 28 26 25 25 26 26 27 29 30 33 35 36 36
47 47 48 49 48 48 46 45 45 46 46 46 47 45 44 44 43 42 41 40 39 38 37 36 35 33 32 30 29 27 27 27 26 26 25 26 27 27 28 30 33 34 35 37
46 47 48 49 50 50 46 45 46 47 46 45 45 44 44 44 42 40 40 40 39 38 37 35 34 32 31 30 29 28 28 26 25 25 25 25 27 28 29 30 32 33 35 36
47 47 48 48 49 50 46 46 45 47 46 44 44 44 43 43 42 38 39 38 38 37 36 35 34 32 31 30 29 27 26 26 24 23 24 25 26 27 28 28 30 32 35 36
46 47 47 47 48 48 46 45 45 46 46 44 44 43 43 42 41 40 39 38 38 37 37 35 34 33 31 30 29 27 25 24 24 23 23 24 25 26 28 29 30 32 34 35
46 47 46 46 47 46 44 44 45 46 46 45 44 43 43 42 40 39 38 38 38 38 37 36 34 32 31 29 27 26 25 24 22 22 22 24 25 25 27 29 30 32 34 35
45 45 45 45 45 44 44 45 45 45 46 45 44 43 42 41 40 39 38 38 38 37 36 35 33 31 30 29 27 26 25 24 22 21 21 22 23 26 26 27 30 31 32 35
45 45 46 46 44 44 44 44 44 44 45 44 43 41 40 40 39 38 38 38 37 36 35 33 32 30 29 27 26 25 24 24 23 21 21 21 23 24 27 28 30 31 32 33
45 45 45 46 43 43 43 43 43 44 43 42 41 40 40 39 38 38 37 36 35 35 34 33 31 29 28 26 26 25 24 24 23 22 21 22 23 24 26 27 29 31 32 34
43 43 44 44 42 43 42 42 42 42 41 40 39 39 39 38 37 36 35 34 34 34 33 32 30 28 26 26 25 25 25 24 23 22 22 22 23 24 25 27 28 30 32 34

GEFSCGP_500_meanwind_186.txt.gz
Wind_Speed
20 20 20 21 22 23 24 25 26 28 29 30 30 31 33 35 36 35 35 37 39 40 42 43 45 46 46 47 48 49 50 51 53 54 55 57 58 59 59 60 62 63 63 64
21 22 23 24 25 25 26 27 28 29 31 32 31 31 33 34 35 35 36 37 39 40 42 42 43 44 44 45 46 47 48 49 50 52 53 54 56 57 58 59 61 62 63 64
24 24 25 26 26 27 28 29 30 31 32 33 34 33 33 33 34 35 36 38 40 41 42 41 43 43 43 44 45 46 47 48 48 49 50 52 53 55 56 57 59 61 62 63
27 27 27 27 28 29 30 30 31 32 33 34 34 35 33 34 34 36 37 39 41 41 42 42 42 42 42 44 45 45 46 46 46 46 47 50 50 52 54 55 56 58 60 62
29 29 29 29 30 31 32 33 33 34 35 35 35 37 35 35 36 37 39 40 41 42 42 42 42 42 42 44 44 44 44 44 44 45 47 48 49 50 52 54 55 56 58 60
32 32 31 31 32 33 34 35 35 36 36 36 35 37 37 37 37 38 40 41 42 42 42 42 43 43 43 43 43 43 41 42 43 44 46 47 47 49 50 52 53 54 56 57
33 33 33 33 33 34 35 36 37 38 38 38 37 38 37 38 39 40 41 42 43 43 43 43 43 44 44 44 43 41 41 41 43 44 45 45 47 48 48 49 52 53 55 57
36 36 35 35 34 35 35 36 37 39 40 40 39 39 39 39 40 42 43 43 44 43 43 44 44 44 44 43 42 41 41 41 43 44 44 45 46 46 47 49 51 53 53 53
38 38 37 37 36 36 36 36 37 39 41 41 41 41 40 41 42 43 44 44 44 44 44 45 45 44 44 43 42 41 42 43 43 43 44 45 46 46 46 47 49 51 52 52
39 40 39 39 38 38 38 38 38 38 41 43 44 42 42 42 43 44 45 45 45 46 46 46 45 44 44 43 43 43 44 45 44 43 43 44 44 44 44 45 46 49 50 51
40 41 41 40 39 39 38 38 39 40 41 43 45 43 43 44 45 45 46 46 46 47 47 46 45 45 44 43 43 43 44 44 44 43 42 41 42 43 42 42 43 45 47 48
41 42 42 41 40 40 39 39 40 41 42 43 46 45 43 44 45 46 46 47 47 47 48 47 45 44 44 42 42 42 42 43 42 40 40 40 39 39 40 40 40 41 43 45
41 42 42 42 42 41 40 40 40 42 43 44 45 46 44 44 45 46 47 47 47 47 48 47 46 45 43 42 41 41 41 41 40 38 38 37 36 36 36 36 37 39 41 41
42 42 42 42 42 42 41 40 41 42 44 45 45 45 44 45 46 46 47 47 48 48 47 47 47 46 44 42 41 40 39 38 37 36 36 35 33 33 34 34 35 36 38 39
43 44 43 42 42 42 42 41 42 43 44 46 45 45 44 45 46 47 47 48 48 48 47 47 46 45 43 42 40 39 38 37 36 36 34 34 33 32 32 31 31 32 35 36
44 44 44 43 42 43 43 42 43 44 44 45 46 45 44 46 47 47 48 48 48 47 47 46 45 44 42 41 39 38 38 36 36 35 33 32 30 30 29 29 29 31 33 34
44 44 44 44 43 45 45 42 43 44 44 45 46 45 45 46 47 48 48 48 47 47 46 45 44 42 40 39 38 37 36 35 35 34 32 30 28 28 27 27 28 29 31 32
45 45 46 46 46 47 45 43 44 44 44 45 45 45 46 46 47 47 47 47 47 46 44 43 42 40 39 37 36 35 35 34 34 33 31 29 27 27 26 26 26 27 29 30
45 45 46 47 48 49 45 43 43 44 44 44 45 45 45 46 46 45 46 46 45 44 43 41 41 39 37 35 34 34 34 34 33 31 29 27 27 27 25 24 24 25 27 29
43 43 44 45 46 47 44 43 44 46 46 44 45 45 46 46 46 44 44 45 43 43 41 40 39 37 35 34 33 33 33 33 32 29 28 27 27 26 24 23 23 23 24 26
42 43 44 44 46 46 43 42 43 45 45 45 45 45 46 46 45 44 44 43 42 41 40 39 37 36 34 33 32 32 32 31 30 28 28 26 25 23 22 22 22 22 23 24
43 44 44 44 45 44 41 42 43 44 44 44 44 44 44 43 43 42 41 41 40 39 38 37 35 34 33 32 31 31 31 30 28 27 25 24 23 22 21 21 21 21 21 23
42 42 43 44 43 42 42 43 43 43 43 43 43 42 42 41 41 40 40 39 39 38 37 36 34 33 32 31 30 30 29 28 27 26 24 22 20 20 19 20 21 20 20 22
40 41 42 42 40 40 41 41 41 42 42 42 42 41 40 40 39 39 39 39 38 37 36 34 33 32 31 30 29 28 27 27 26 23 22 21 19 18 18 20 21 21 22 23
40 41 41 42 40 41 40 41 41 42 42 42 42 41 40 40 39 38 38 38 37 35 34 33 31 30 29 29 28 27 26 25 23 21 20 19 18 17 17 18 21 21 22 23
39 40 41 41 40 42 40 40 42 42 42 41 41 39 39 39 38 37 37 36 35 34 33 32 31 30 29 28 27 26 25 24 22 20 18 18 18 17 17 17 19 22 22 24

GEFSCGP_500_meanwind_192.txt.gz
Wind_Speed
24 24 23 23 23 24 24 25 24 25 26 26 27 27 27 29 31 32 33 34 35 37 38 39 41 42 44 46 47 49 50 51 53 54 55 56 57 58 59 60 62 63 64 66
26 26 26 26 26 26 26 27 27 27 28 29 29 29 29 30 32 33 34 36 37 38 39 40 42 44 46 47 48 49 50 51 52 53 54 54 54 56 57 58 59 60 62 63
28 28 27 28 28 28 28 29 29 30 30 31 32 31 30 31 33 34 35 36 38 39 40 41 43 45 46 47 48 49 50 51 51 52 52 51 52 54 55 56 56 57 59 59
30 29 29 29 29 30 30 30 31 31 32 32 33 35 31 32 33 35 36 37 38 39 41 43 44 45 47 48 49 50 51 51 51 50 50 51 51 52 53 54 53 55 56 56
32 31 31 31 31 32 32 32 32 33 34 34 34 37 35 35 35 36 37 38 39 40 42 43 45 46 47 48 49 50 50 50 49 49 50 50 49 50 50 52 52 53 53 54
34 34 34 34 33 34 34 34 35 36 36 37 35 37 38 37 37 38 39 39 41 42 43 44 46 47 47 48 49 49 48 49 49 49 49 48 48 48 49 50 50 51 51 52
36 36 36 36 36 36 36 36 37 39 39 39 38 39 39 39 39 39 40 41 42 43 44 45 46 47 48 49 49 49 48 48 48 48 46 46 47 48 48 48 48 49 49 50
39 39 38 38 38 38 38 38 39 41 42 42 41 41 40 40 40 41 42 43 44 45 46 47 47 48 49 50 49 48 49 48 48 47 46 47 47 48 48 47 47 47 48 49
42 43 41 40 40 40 40 39 39 41 43 44 43 43 42 42 42 42 44 45 46 47 48 48 49 49 50 50 49 49 48 47 47 46 46 47 47 47 47 47 47 47 48 48
43 44 44 43 42 42 42 41 41 42 44 45 45 44 43 44 43 44 45 46 47 48 49 50 50 50 50 49 48 48 47 47 46 45 46 47 47 46 46 45 44 46 47 49
43 44 45 45 44 43 42 42 43 44 44 46 47 45 44 45 45 46 46 47 48 49 50 50 50 51 51 51 49 47 47 47 47 48 47 47 46 44 45 45 46 46 46 48
43 44 45 45 45 44 44 43 43 44 45 46 47 45 44 45 46 46 47 48 49 50 51 51 51 51 52 51 50 49 48 48 48 48 48 47 47 47 47 47 48 48 47 46
43 44 44 45 45 44 43 42 43 44 45 46 46 45 44 45 45 46 47 48 49 50 51 51 51 52 52 51 50 48 48 48 49 48 47 47 47 47 47 46 47 46 46 45
44 45 45 45 45 44 43 42 42 43 45 46 46 45 43 44 45 46 47 48 49 51 51 52 52 52 52 51 50 49 48 49 49 48 47 46 46 46 46 45 44 44 43 43
47 47 46 45 45 46 46 44 44 45 45 46 45 44 43 44 45 47 48 49 50 51 51 52 52 52 52 51 50 49 48 47 47 46 45 44 43 43 43 42 41 42 42 41
47 48 48 47 46 47 47 46 46 45 45 46 46 45 43 44 46 47 49 50 51 51 51 52 52 52 51 51 50 48 46 45 45 45 44 43 42 42 42 41 40 40 39 38
46 47 48 48 47 48 48 44 45 46 45 45 46 45 44 45 46 47 49 50 50 51 51 51 51 51 50 50 49 47 45 44 43 43 42 41 41 41 41 39 38 37 36 33
45 45 46 47 46 48 46 43 44 45 44 45 45 44 45 46 47 48 49 49 50 50 50 50 50 49 49 48 47 46 45 44 43 41 39 39 39 39 38 36 34 34 33 31
43 43 44 45 46 47 43 41 42 44 44 43 44 45 45 46 47 47 48 49 49 49 48 49 48 48 48 47 46 44 43 43 42 40 39 38 37 36 35 34 33 32 31 29
42 42 42 43 45 46 42 41 41 43 44 41 43 44 45 46 47 46 47 48 48 48 47 47 47 47 47 46 44 43 42 41 40 39 38 37 35 34 33 32 31 28 27 26
41 43 44 44 46 46 43 43 43 44 44 44 44 45 45 45 46 46 46 47 47 47 47 46 47 46 45 44 42 40 39 38 36 36 35 34 33 31 30 29 27 26 25 24
41 42 44 44 45 44 43 44 44 45 45 45 46 45 45 45 45 45 46 46 46 46 45 45 45 44 43 41 39 37 35 34 33 33 32 32 31 30 29 27 24 22 22 22
40 41 42 43 43 42 42 44 44 44 44 45 45 44 44 44 45 46 46 46 45 45 45 44 44 43 41 39 37 35 33 32 31 31 30 29 29 28 27 26 23 20 19 18
37 38 39 41 40 40 41 42 42 42 43 43 43 43 43 44 45 45 45 44 44 43 43 42 42 40 38 36 35 33 31 30 30 28 28 27 27 26 24 23 21 19 17 16
37 38 39 39 38 40 41 41 41 41 42 42 42 42 43 44 44 44 42 42 41 40 41 40 39 37 35 33 32 31 30 28 28 27 25 24 25 24 23 21 19 17 16 14
36 38 39 39 38 40 40 41 41 41 42 42 42 42 43 43 43 42 41 40 40 39 39 38 37 35 33 32 30 29 28 27 26 25 23 22 22 21 19 17 15 15 15 15

GEFSCGP_500_meanwind_198.txt.gz
Wind_Speed
27 26 25 25 26 26 26 26 26 25 26 26 25 25 25 26 26 26 26 27 28 29 30 31 32 33 34 36 37 38 40 41 43 44 46 47 48 50 51 53 54 55 56 57
29 28 27 28 28 28 28 28 27 27 28 27 27 27 26 27 27 27 28 28 29 29 30 32 33 33 35 36 38 39 40 42 43 45 46 47 48 49 50 51 53 55 57 58
31 30 30 30 29 29 29 29 29 29 29 30 29 28 27 27 28 29 29 30 30 31 32 33 34 35 36 38 39 40 41 43 44 45 46 47 49 50 51 52 54 55 57 58
34 33 33 32 31 31 31 31 31 31 31 31 31 31 28 28 29 30 30 31 32 33 33 34 35 37 38 39 40 41 43 44 45 46 48 49 50 51 53 54 54 55 56 56
36 35 35 35 33 33 33 33 33 33 33 34 33 34 31 29 30 30 31 32 33 34 35 35 37 38 39 40 42 43 45 46 47 48 50 51 52 53 54 55 55 55 55 55
38 38 37 37 36 36 36 36 36 36 36 36 35 36 35 32 32 32 33 34 35 35 36 37 38 39 40 42 43 45 46 47 49 50 51 53 54 55 56 55 55 54 54 54
40 39 39 38 38 37 37 37 37 38 38 38 37 37 37 35 34 34 35 35 36 36 37 38 39 40 41 43 45 46 47 49 50 51 52 54 55 56 56 56 54 53 53 53
41 40 40 39 39 38 37 37 38 39 40 40 39 39 38 38 37 36 37 37 37 37 38 39 40 41 43 44 46 47 48 50 51 52 53 55 56 56 54 53 52 51 51 52
40 41 41 40 39 39 39 39 39 40 42 42 41 41 39 39 39 38 38 38 39 39 40 41 42 43 44 45 47 48 49 51 52 53 54 55 55 53 52 51 51 50 50 50
40 41 40 40 40 40 39 39 39 39 42 43 43 41 40 40 40 40 40 40 40 41 42 43 44 44 45 46 47 49 50 51 52 53 54 54 53 52 51 51 51 50 50 48
41 42 42 41 40 39 40 40 41 42 43 44 44 42 41 41 41 41 41 41 42 43 44 44 45 45 46 47 48 49 50 51 52 53 53 53 52 51 50 50 50 49 49 48
41 43 43 42 42 42 42 41 41 42 42 44 45 43 41 42 42 42 42 43 43 44 44 45 45 46 47 48 49 50 51 51 52 53 52 51 50 49 49 49 50 50 49 49
41 42 42 43 43 43 43 42 42 43 44 44 44 43 42 42 41 42 43 43 44 44 44 45 45 46 47 48 49 50 50 51 51 52 51 49 49 48 49 49 49 49 48 47
42 42 42 42 42 42 42 42 43 43 44 45 43 42 41 42 42 42 43 44 43 44 44 45 45 46 47 48 49 49 50 51 51 50 49 48 48 48 48 49 48 47 47 47
42 42 42 42 42 42 43 42 43 44 44 45 43 42 40 41 42 42 43 44 43 44 44 45 45 46 47 48 49 50 50 50 50 49 48 48 48 49 48 48 47 47 46 46
43 43 42 42 42 43 44 43 43 43 43 44 43 41 39 41 42 42 43 44 44 44 45 46 46 46 47 48 49 49 49 49 49 48 48 47 48 49 48 47 47 47 45 45
43 43 43 43 42 43 44 41 41 42 42 42 42 41 40 41 41 42 43 43 44 44 45 46 46 47 47 48 48 49 49 49 49 48 47 47 48 48 47 45 45 45 44 43
43 44 44 44 44 45 41 39 40 41 41 41 41 41 42 42 42 43 43 43 44 45 45 46 46 46 47 48 48 48 48 48 48 47 47 46 47 46 44 43 42 42 41 40
40 41 42 43 44 44 41 40 40 41 41 40 41 41 42 43 44 44 44 44 44 45 45 46 46 47 48 48 48 47 47 47 47 47 46 45 45 44 42 41 40 39 38 38
38 39 40 40 41 41 39 40 41 43 42 40 40 40 40 41 42 41 42 43 44 44 45 45 46 47 48 48 47 47 46 46 45 44 44 44 42 41 40 38 37 35 34 34
36 37 38 39 39 39 36 38 40 42 42 41 41 41 41 41 42 42 42 43 44 45 45 46 46 47 47 47 47 46 45 44 43 42 41 40 39 38 37 36 34 33 32 31
36 37 38 38 39 37 36 37 39 41 42 42 41 41 41 41 42 42 43 43 43 44 44 44 45 46 46 46 45 45 44 43 41 39 38 37 37 36 35 34 32 31 30 28
35 36 36 37 36 35 36 37 38 39 40 40 40 40 41 41 42 43 43 43 43 43 43 43 43 44 44 44 44 43 42 41 39 38 36 35 34 34 33 31 30 29 26 24
33 34 36 36 36 36 36 36 37 38 39 40 40 40 40 40 40 40 40 40 41 42 42 42 42 43 43 42 42 41 39 37 36 35 34 33 32 30 30 28 27 26 24 21
30 32 34 35 34 35 35 36 37 38 38 38 38 38 39 39 39 39 39 39 40 40 41 41 42 41 41 40 39 37 35 34 33 32 30 30 28 26 25 24 23 22 19 18
30 32 33 33 33 35 35 35 35 37 37 37 38 38 38 39 39 39 39 39 39 40 40 41 41 39 39 38 36 34 32 31 30 29 28 26 25 23 21 20 20 20 18 17

GEFSCGP_500_meanwind_204.txt.gz
Wind_Speed
35 35 33 32 32 32 31 31 30 29 30 30 29 28 28 28 28 28 29 29 28 28 29 30 30 30 30 30 31 32 33 34 35 36 38 39 41 42 44 45 47 48 49 50
37 36 34 35 35 34 33 32 31 31 31 31 30 30 29 29 28 29 29 29 29 30 31 30 31 31 31 32 33 34 35 36 37 38 40 41 42 44 45 47 48 50 51 53
38 37 36 36 36 36 35 34 33 33 33 33 32 31 30 30 30 30 30 30 30 31 31 32 32 32 33 33 34 35 36 37 38 40 41 43 44 45 47 49 50 51 53 54
40 39 39 38 37 37 36 35 35 35 35 35 35 35 31 32 32 31 31 31 31 31 32 33 33 33 34 35 35 36 37 38 40 41 43 44 46 47 48 50 51 52 53 54
42 40 40 40 38 38 38 37 37 37 38 38 37 38 33 32 32 32 32 32 32 33 33 34 34 35 35 36 37 38 39 40 41 43 45 46 48 49 50 50 51 53 54 55
43 43 42 41 40 40 40 39 39 40 40 41 38 39 37 34 33 33 33 34 34 35 35 35 36 37 37 38 38 39 40 42 43 45 47 48 49 50 50 51 52 53 54 55
44 44 44 43 42 41 41 41 41 42 42 42 39 40 39 36 35 34 34 35 36 36 36 37 37 38 38 39 40 41 42 44 45 47 48 49 50 51 52 53 54 54 55 55
45 44 44 43 42 41 41 41 41 42 42 42 41 40 39 38 37 36 36 36 37 37 37 38 38 39 40 41 41 43 44 45 47 48 49 50 52 53 54 54 54 55 54 54
44 45 45 45 44 43 43 43 42 43 43 43 43 41 39 38 38 38 38 38 38 38 38 39 39 40 41 42 43 44 45 47 48 49 51 52 53 54 54 54 54 54 54 54
43 44 44 44 45 45 45 43 43 44 45 45 44 42 40 39 38 38 38 39 39 39 39 40 40 41 42 43 44 45 46 48 49 50 51 52 53 54 54 54 54 54 54 55
42 43 43 43 43 42 43 44 45 45 46 46 45 43 41 40 40 40 39 39 40 40 40 41 41 42 43 44 45 46 47 49 50 51 52 52 53 54 54 53 53 54 55 56
42 43 43 43 42 42 42 42 42 44 46 47 46 45 42 41 41 41 40 40 40 41 42 42 43 43 44 44 45 46 48 49 50 51 51 52 53 54 53 53 53 54 55 56
43 44 44 44 44 43 42 41 41 42 44 45 46 45 42 42 42 42 42 41 42 43 43 43 43 43 44 44 45 47 48 49 50 51 51 51 52 52 52 52 53 54 55 55
44 44 45 44 44 44 43 42 42 43 44 44 44 43 41 42 43 43 43 43 43 44 44 43 43 43 44 45 46 47 49 49 50 51 51 51 51 51 52 52 53 54 54 53
44 44 44 44 44 44 44 44 44 45 44 44 43 42 41 42 43 43 44 44 44 43 44 44 44 44 45 46 47 48 49 49 50 50 51 51 51 52 52 52 52 53 52 52
43 44 44 44 43 44 44 43 44 44 44 44 44 43 41 43 44 44 45 45 45 44 44 44 45 45 46 47 47 48 49 49 50 50 50 51 51 51 51 52 52 52 52 52
42 42 43 45 45 45 45 42 43 43 43 43 44 41 41 43 44 45 45 45 45 45 45 46 46 46 47 47 48 49 49 49 49 49 50 50 50 50 50 51 52 51 51 51
41 40 41 43 44 46 43 42 42 42 42 42 42 41 41 42 43 43 44 44 44 45 45 45 46 46 47 47 48 48 48 49 49 49 49 49 49 49 50 51 51 51 51 50
40 40 40 41 42 43 42 41 41 41 40 40 40 40 40 41 41 41 41 42 43 44 44 45 46 46 46 47 47 47 47 48 48 48 48 48 48 49 50 50 50 50 49 48
38 38 39 40 41 41 39 41 41 41 41 39 39 39 40 40 40 40 40 41 42 43 43 44 45 45 46 46 46 46 47 47 47 47 47 47 48 49 49 49 48 48 47 45
35 36 36 37 38 38 38 38 39 40 40 39 39 39 39 39 40 40 40 41 41 41 42 43 44 45 45 46 45 45 46 47 46 47 47 47 47 48 48 48 47 45 44 42
31 33 34 35 36 35 36 37 38 38 38 38 38 38 38 39 39 40 40 41 41 41 42 43 43 44 44 45 45 45 46 46 47 47 47 47 48 48 47 46 45 43 41 40
30 31 31 32 32 33 34 35 36 36 36 37 38 38 39 40 40 41 41 41 41 42 42 43 43 43 43 44 45 46 46 46 46 47 47 47 46 45 44 42 40 39 38 37
31 31 32 31 31 32 33 34 35 36 36 36 37 38 38 39 40 40 41 41 42 42 43 43 44 44 44 44 45 45 45 46 46 45 45 44 42 41 40 39 38 37 36 33
29 31 32 33 33 34 34 35 35 35 35 35 35 36 36 37 37 38 39 40 41 41 42 43 43 43 43 44 44 44 44 44 43 43 42 40 39 38 37 36 35 34 32 30
28 29 30 30 31 33 32 33 34 35 35 35 35 35 36 36 36 36 37 38 38 39 40 41 41 41 42 43 43 43 43 43 41 39 38 36 35 33 32 30 29 29 28 27

GEFSCGP_500_meanwind_210.txt.gz
Wind_Speed
41 41 40 38 38 38 37 37 36 35 35 35 34 33 32 33 33 32 32 32 32 31 31 31 30 30 30 30 29 30 30 31 31 32 33 34 34 35 36 37 38 39 41 42
42 41 39 40 40 39 38 38 37 37 37 37 36 34 33 33 33 32 32 32 32 32 31 31 31 30 30 30 30 30 31 31 32 33 33 34 35 36 37 38 40 41 42 43
43 41 40 41 40 40 39 38 37 37 37 37 37 36 34 34 34 33 33 32 32 32 32 31 31 31 31 30 30 31 32 33 33 34 35 35 36 37 39 40 41 43 43 45
44 43 41 41 41 40 40 39 38 38 38 38 38 37 35 34 34 33 33 33 33 32 32 32 32 32 32 32 32 33 34 34 35 35 36 37 38 39 40 41 42 43 45 46
45 43 42 41 41 41 41 39 39 39 39 40 38 39 35 34 34 33 33 33 33 33 33 33 33 33 33 33 34 35 35 35 36 37 38 39 40 41 41 42 43 45 46 47
46 44 43 42 41 41 41 40 40 40 41 41 39 39 37 34 33 33 33 34 34 34 34 34 34 35 35 35 36 36 35 36 37 38 39 40 41 42 43 44 45 46 47 48
46 45 44 43 42 42 41 40 40 41 42 42 39 39 38 35 33 33 33 34 34 35 35 35 35 36 36 36 37 37 37 37 39 39 40 41 42 43 44 45 46 47 48 49
46 46 45 43 43 42 41 41 40 41 41 41 40 40 39 36 34 34 33 34 35 35 35 36 36 36 37 37 37 38 38 39 40 41 42 42 43 44 45 46 47 48 49 49
45 46 46 44 43 43 42 42 41 42 42 42 43 41 40 37 35 35 34 34 34 35 36 36 36 37 37 38 38 38 39 40 41 42 43 44 45 46 47 47 48 49 50 50
44 45 45 45 44 43 43 42 42 42 43 43 44 42 40 38 36 36 36 35 35 36 36 36 37 37 37 38 38 39 40 41 42 43 44 45 46 46 47 49 50 50 50 50
42 44 44 44 44 43 43 43 44 44 45 44 45 44 41 39 38 37 36 36 37 37 37 37 37 38 38 38 39 40 41 42 43 44 45 46 46 47 49 50 50 50 50 51
41 42 44 44 44 43 44 43 43 44 45 45 45 45 42 40 39 38 38 37 38 38 38 38 38 38 39 39 40 41 42 43 44 45 46 47 47 48 49 50 50 51 51 52
41 41 42 44 45 44 44 43 43 44 44 44 44 45 42 41 39 39 39 39 39 40 39 39 39 39 40 40 41 42 43 44 45 46 47 47 48 49 50 50 50 51 51 52
42 42 43 43 44 43 42 42 42 43 44 44 43 42 41 40 40 41 41 41 41 41 40 40 40 40 41 41 42 43 44 45 46 46 47 47 48 49 49 49 50 51 52 53
40 40 41 42 43 42 42 42 41 41 41 42 41 41 40 40 40 40 41 41 41 41 41 41 41 41 41 42 42 43 44 45 46 47 47 47 48 49 49 49 51 52 52 53
40 40 40 40 41 42 42 41 41 41 41 41 41 40 38 39 39 39 40 40 41 41 41 41 41 41 42 42 43 43 44 45 46 46 47 47 48 49 49 50 51 52 52 52
39 38 40 40 40 40 41 40 40 40 39 39 39 39 39 39 39 40 40 40 41 41 41 41 41 41 42 43 43 44 44 45 46 46 46 47 48 48 49 50 51 51 51 51
35 37 37 39 40 41 40 39 39 39 39 39 39 39 39 39 39 39 39 39 40 40 41 41 41 41 42 42 43 44 44 44 45 45 46 47 47 48 48 49 50 50 50 51
32 34 35 36 38 39 38 38 37 37 38 38 38 39 39 39 39 39 39 39 39 39 40 40 41 41 42 42 42 43 43 43 44 44 45 46 47 47 47 48 48 49 49 49
31 31 32 34 35 36 35 36 36 36 37 36 37 37 38 38 38 38 38 38 38 39 39 39 40 40 41 42 42 42 43 43 43 44 45 45 46 46 46 47 47 48 47 48
30 30 30 30 32 32 32 33 34 35 35 35 36 36 37 37 37 37 37 38 38 38 38 39 39 40 40 41 42 42 42 42 42 43 44 44 45 45 45 46 46 46 45 44
28 29 29 29 30 28 29 30 31 31 31 32 33 34 35 35 36 36 37 37 37 37 37 38 38 39 39 40 40 40 41 41 42 43 43 44 44 45 45 45 44 44 43 41
27 28 28 28 28 27 27 28 29 29 29 30 31 32 32 33 34 35 36 36 37 37 37 37 38 38 38 38 38 39 40 41 42 43 43 43 44 44 44 44 43 42 41 39
23 25 27 28 28 28 27 27 28 29 29 30 30 30 31 32 33 34 35 35 36 36 36 37 37 37 37 37 38 39 40 40 41 41 42 43 43 43 43 42 41 40 39 38
22 23 24 26 27 27 27 28 28 28 29 30 30 30 31 32 32 33 34 34 35 35 35 36 37 37 37 38 39 39 40 40 41 41 42 43 43 42 41 40 40 39 37 36
21 21 22 24 25 26 26 27 27 28 29 30 30 31 31 32 32 33 33 33 33 34 35 36 37 37 38 38 39 39 39 40 40 41 42 42 41 40 39 38 37 36 34 32